Regional Weather Roundup
Issued by NWS

Home | Current Version | Previous Version | Text Only | Print | Product List | Glossary On
Versions: 1 2 3 4 5 6 7 8 9 10 11 12 13 14 15 16 17 18 19 20 21 22 23 24 25 26 27 28 29 30 31 32 33 34 35 36 37 38 39 40 41 42 43 44 45 46 47 48 49 50
136
ASUS44 KFWD 010301
RWRTX
NORTH TEXAS HOURLY WEATHER ROUNDUP
NATIONAL WEATHER SERVICE FORT WORTH TX
1000 PM CDT SAT APR 30 2016

NOTE: "FAIR" INDICATES FEW OR NO CLOUDS BELOW 12,000 FEET WITH NO
SIGNIFICANT WEATHER AND/OR OBSTRUCTIONS TO VISIBILITY.

TXZ118-119-010400-
DALLAS/FORT WORTH METROPLEX

CITY           SKY/WX    TMP DP  RH WIND       PRES   REMARKS
DFW AIRPORT    PTCLDY    70  57  63 CALM      29.85R
DALLAS LOVE    PTCLDY    70  59  68 CALM      29.85R
FTW MEACHAM    CLEAR     65  57  75 N3        29.86R
DAL-EXECUTIVE  CLEAR     66  58  75 NW5       29.85R
FTW-ALLIANCE   CLEAR     64  57  78 NW6       29.86R
FTW-NAS-JRB    CLEAR     68  61  78 NW3       29.87R
ARLINGTON      CLEAR     66  60  81 NW3       29.86R
GRAND PRAIRIE  CLEAR     69  58  68 CALM      29.87R
ADDISON        CLEAR     70  61  73 CALM      29.86R
MESQUITE       CLEAR     67  62  83 N5        29.85R
LANCASTER      CLEAR     67  58  73 NW6       29.85R
$$

TXZ091>094-102>105-117-120-121-131>134-010400-
NORTH CENTRAL TEXAS

CITY           SKY/WX    TMP DP  RH WIND       PRES   REMARKS
BRIDGEPORT     CLEAR     58  58 100 CALM      29.90R
DECATUR        CLEAR     65  53  65 N3        29.89R
DENTON         CLEAR     63  58  83 NW6       29.86R
MCKINNEY       CLEAR     66  62  87 CALM      29.85R
ROCKWALL       CLEAR     66  63  89 N3        29.84R
TERRELL        CLEAR     67  64  90 N5        29.85R
WAXAHACHIE     CLEAR     65  61  86 N6        29.86R
CLEBURNE       CLEAR     66  61  82 N7        29.88R
GRANBURY       CLEAR     65  58  77 CALM      29.89R
$$

TXZ083>090-098>101-113>116-127>130-139>142-154-155-010400-
WESTERN NORTH TEXAS

CITY           SKY/WX    TMP DP  RH WIND       PRES   REMARKS
WICHITA FALLS  CLEAR     61  49  64 NE6       29.89R
WF-KICKAPOO    CLEAR     65  49  55 CALM      29.90R
VERNON         CLEAR     59  45  59 N7        29.92R
ABILENE        CLEAR     65  51  60 E12       29.86R
MINERAL WELLS  CLEAR     64  54  69 N6        29.87R
STEPHENVILLE   CLEAR     65  56  72 E3        29.90R
COMANCHE       CLEAR     65  58  77 E5        29.87R
$$

TXZ143>147-156>162-174-175-010400-
CENTRAL TEXAS

CITY           SKY/WX    TMP DP  RH WIND       PRES   REMARKS
WACO           CLEAR     68  64  87 N6        29.83R
WACO-TSTC      CLEAR     66  64  94 N3        29.84
WACO-MCGREGOR  CLEAR     69  66  90 N6        29.84R
HILLSBORO      CLEAR     64  60  87 N3        29.85R
CORSICANA      CLEAR     69  64  84 N5        29.85R
HEARNE         CLEAR     71  68  90 CALM      29.81R
CAMERON        CLEAR     71  68  90 N5        29.81R
TEMPLE         CLEAR     69  66  90 N6        29.83R
KILLEEN        NOT AVBL
KILLEEN-SKYLRK CLEAR     69  63  81 NE6       29.83R
HAMILTON       CLEAR     67  57  71 N6        29.87R
$$

TXZ095>097-106>112-122>126-135>138-148>153-164>167-010400-
EAST TEXAS

CITY           SKY/WX    TMP DP  RH WIND       PRES   REMARKS
PARIS          CLEAR     64  55  72 NW5       29.85R
SULPHUR SPRNGS CLEAR     67  65  91 NW8       29.87R
MINEOLA        CLEAR     70  64  83 CALM      29.84R
TYLER          CLEAR     70  64  81 NW3       29.83R
LONGVIEW       PTCLDY    71  66  84 NW5       29.81R
ATHENS         CLEAR     68  64  88 N3        29.82R
PALESTINE      CLEAR     68  66  93 N3        29.83R
JACKSONVILLE     N/A     71  67  89 N5        29.84R
CENTER         MOCLDY    74  73  95 CALM      29.79R
NACOGDOCHES    PTCLDY    72  70  94 N8        29.80R
LUFKIN         PTCLDY    74  71  91 CALM      29.78R
$$

SUPPLEMENTAL OBSERVATIONS (CENTRAL)

CITY           SKY/WX    TMP DP  RH WIND       PRES   REMARKS
$$

SUPPLEMENTAL OBSERVATIONS (WEST)

CITY           SKY/WX    TMP DP  RH WIND       PRES   REMARKS
$$

SUPPLEMENTAL OBSERVATIONS (EAST)

CITY           SKY/WX    TMP DP  RH WIND       PRES   REMARKS
$$

SUPPLEMENTAL OBSERVATIONS ARE A COLLECTION OF AUTOMATED INSTRUMENTS
THAT ARE MAINTAINED BY A VARIETY OF FEDERAL AND STATE AGENCIES.
CERTAIN ELEMENTS...SUCH AS HUMIDITY VALUES AND SUSTAINED WIND
SPEEDS...MAY BE APPROXIMATED.





USA.gov is the U.S. government's official web portal to all federal, state and local government web resources and services.